Year,Month,Day,Hour,Minute,Value (Times are PST for temperature in C)
2017,04,16,00,00,5.00
2017,04,16,00,01,5.00
2017,04,16,00,02,5.00
2017,04,16,00,03,5.00
2017,04,16,00,04,4.90
2017,04,16,00,05,4.90
2017,04,16,00,06,4.90
2017,04,16,00,07,4.90
2017,04,16,00,08,4.90
2017,04,16,00,09,4.90
2017,04,16,00,10,4.80
2017,04,16,00,11,4.80
2017,04,16,00,12,4.80
2017,04,16,00,13,4.80
2017,04,16,00,14,4.80
2017,04,16,00,15,4.80
2017,04,16,00,16,4.80
2017,04,16,00,17,4.70
2017,04,16,00,18,4.70
2017,04,16,00,19,4.70
2017,04,16,00,20,4.70
2017,04,16,00,21,4.60
2017,04,16,00,22,4.60
2017,04,16,00,23,4.60
2017,04,16,00,24,4.50
2017,04,16,00,25,4.50
2017,04,16,00,26,4.50
2017,04,16,00,27,4.40
2017,04,16,00,28,4.40
2017,04,16,00,29,4.30
2017,04,16,00,30,4.30
2017,04,16,00,31,4.30
2017,04,16,00,32,4.30
2017,04,16,00,33,4.30
2017,04,16,00,34,4.30
2017,04,16,00,35,4.30
2017,04,16,00,36,4.30
2017,04,16,00,37,4.30
2017,04,16,00,38,4.30
2017,04,16,00,39,4.30
2017,04,16,00,40,4.30
2017,04,16,00,41,4.30
2017,04,16,00,42,4.30
2017,04,16,00,43,4.30
2017,04,16,00,44,4.30
2017,04,16,00,45,4.30
2017,04,16,00,46,4.30
2017,04,16,00,47,4.30
2017,04,16,00,48,4.30
2017,04,16,00,49,4.30
2017,04,16,00,50,4.20
2017,04,16,00,51,4.20
2017,04,16,00,52,4.20
2017,04,16,00,53,4.20
2017,04,16,00,54,4.20
2017,04,16,00,55,4.20
2017,04,16,00,56,4.20
2017,04,16,00,57,4.20
2017,04,16,00,58,4.10
2017,04,16,00,59,4.10
2017,04,16,01,00,4.10
2017,04,16,01,01,4.10
2017,04,16,01,02,4.00
2017,04,16,01,03,4.00
2017,04,16,01,04,4.00
2017,04,16,01,05,3.90
2017,04,16,01,06,3.90
2017,04,16,01,07,3.90
2017,04,16,01,08,3.90
2017,04,16,01,09,3.90
2017,04,16,01,10,3.90
2017,04,16,01,11,3.80
2017,04,16,01,12,3.80
2017,04,16,01,13,3.80
2017,04,16,01,14,3.80
2017,04,16,01,15,3.80
2017,04,16,01,16,3.80
2017,04,16,01,17,3.80
2017,04,16,01,18,3.80
2017,04,16,01,19,3.90
2017,04,16,01,20,3.90
2017,04,16,01,21,3.90
2017,04,16,01,22,3.90
2017,04,16,01,23,3.90
2017,04,16,01,24,3.90
2017,04,16,01,25,3.90
2017,04,16,01,26,3.90
2017,04,16,01,27,3.90
2017,04,16,01,28,3.90
2017,04,16,01,29,3.90
2017,04,16,01,30,3.90
2017,04,16,01,31,3.80
2017,04,16,01,32,3.80
2017,04,16,01,33,3.80
2017,04,16,01,34,3.80
2017,04,16,01,35,3.80
2017,04,16,01,36,3.80
2017,04,16,01,37,3.80
2017,04,16,01,38,3.80
2017,04,16,01,39,3.80
2017,04,16,01,40,3.80
2017,04,16,01,41,3.80
2017,04,16,01,42,3.70
2017,04,16,01,43,3.70
2017,04,16,01,44,3.70
2017,04,16,01,45,3.70
2017,04,16,01,46,3.60
2017,04,16,01,47,3.60
2017,04,16,01,48,3.60
2017,04,16,01,49,3.50
2017,04,16,01,50,3.50
2017,04,16,01,51,3.40
2017,04,16,01,52,3.40
2017,04,16,01,53,3.40
2017,04,16,01,54,3.40
2017,04,16,01,55,3.40
2017,04,16,01,56,3.40
2017,04,16,01,57,3.40
2017,04,16,01,58,3.50
2017,04,16,01,59,3.50
2017,04,16,02,00,3.50
2017,04,16,02,01,3.40
2017,04,16,02,02,3.40
2017,04,16,02,03,3.40
2017,04,16,02,04,3.40
2017,04,16,02,05,3.40
2017,04,16,02,06,3.40
2017,04,16,02,07,3.40
2017,04,16,02,08,3.40
2017,04,16,02,09,3.40
2017,04,16,02,10,3.30
2017,04,16,02,11,3.30
2017,04,16,02,12,3.30
2017,04,16,02,13,3.30
2017,04,16,02,14,3.30
2017,04,16,02,15,3.20
2017,04,16,02,16,3.20
2017,04,16,02,17,3.20
2017,04,16,02,18,3.20
2017,04,16,02,19,3.20
2017,04,16,02,20,3.20
2017,04,16,02,21,3.20
2017,04,16,02,22,3.20
2017,04,16,02,23,3.20
2017,04,16,02,24,3.20
2017,04,16,02,25,3.20
2017,04,16,02,26,3.20
2017,04,16,02,27,3.20
2017,04,16,02,28,3.10
2017,04,16,02,29,3.10
2017,04,16,02,30,3.10
2017,04,16,02,31,3.10
2017,04,16,02,32,3.10
2017,04,16,02,33,3.10
2017,04,16,02,34,3.00
2017,04,16,02,35,3.00
2017,04,16,02,36,3.00
2017,04,16,02,37,3.00
2017,04,16,02,38,3.00
2017,04,16,02,39,3.00
2017,04,16,02,40,3.00
2017,04,16,02,41,3.00
2017,04,16,02,42,2.90
2017,04,16,02,43,2.90
2017,04,16,02,44,2.90
2017,04,16,02,45,2.90
2017,04,16,02,46,2.90
2017,04,16,02,47,2.90
2017,04,16,02,48,2.90
2017,04,16,02,49,2.90
2017,04,16,02,50,3.00
2017,04,16,02,51,3.00
2017,04,16,02,52,3.00
2017,04,16,02,53,3.00
2017,04,16,02,54,3.00
2017,04,16,02,55,3.00
2017,04,16,02,56,3.00
2017,04,16,02,57,3.00
2017,04,16,02,58,3.00
2017,04,16,02,59,3.00
2017,04,16,03,00,3.00
2017,04,16,03,01,3.00
2017,04,16,03,02,3.00
2017,04,16,03,03,3.00
2017,04,16,03,04,3.00
2017,04,16,03,05,3.00
2017,04,16,03,06,2.90
2017,04,16,03,07,2.90
2017,04,16,03,08,2.90
2017,04,16,03,09,2.90
2017,04,16,03,10,2.90
2017,04,16,03,11,2.80
2017,04,16,03,12,2.80
2017,04,16,03,13,2.80
2017,04,16,03,14,2.80
2017,04,16,03,15,2.80
2017,04,16,03,16,2.80
2017,04,16,03,17,2.80
2017,04,16,03,18,2.80
2017,04,16,03,19,2.80
2017,04,16,03,20,2.80
2017,04,16,03,21,2.80
2017,04,16,03,22,2.80
2017,04,16,03,23,2.80
2017,04,16,03,24,2.80
2017,04,16,03,25,2.80
2017,04,16,03,26,2.70
2017,04,16,03,27,2.70
2017,04,16,03,28,2.70
2017,04,16,03,29,2.70
2017,04,16,03,30,2.70
2017,04,16,03,31,2.60
2017,04,16,03,32,2.60
2017,04,16,03,33,2.60
2017,04,16,03,34,2.60
2017,04,16,03,35,2.50
2017,04,16,03,36,2.50
2017,04,16,03,37,2.50
2017,04,16,03,38,2.50
2017,04,16,03,39,2.60
2017,04,16,03,40,2.60
2017,04,16,03,41,2.60
2017,04,16,03,42,2.60
2017,04,16,03,43,2.60
2017,04,16,03,44,2.60
2017,04,16,03,45,2.70
2017,04,16,03,46,2.70
2017,04,16,03,47,2.70
2017,04,16,03,48,2.70
2017,04,16,03,49,2.70
2017,04,16,03,50,2.70
2017,04,16,03,51,2.70
2017,04,16,03,52,2.70
2017,04,16,03,53,2.70
2017,04,16,03,54,2.70
2017,04,16,03,55,2.70
2017,04,16,03,56,2.80
2017,04,16,03,57,2.80
2017,04,16,03,58,2.80
2017,04,16,03,59,2.80
2017,04,16,04,00,2.80
2017,04,16,04,01,2.80
2017,04,16,04,02,2.80
2017,04,16,04,03,2.80
2017,04,16,04,04,2.70
2017,04,16,04,05,2.70
2017,04,16,04,06,2.70
2017,04,16,04,07,2.70
2017,04,16,04,08,2.70
2017,04,16,04,09,2.70
2017,04,16,04,10,2.70
2017,04,16,04,11,2.70
2017,04,16,04,12,2.70
2017,04,16,04,13,2.70
2017,04,16,04,14,2.70
2017,04,16,04,15,2.70
2017,04,16,04,16,2.70
2017,04,16,04,17,2.70
2017,04,16,04,18,2.70
2017,04,16,04,19,2.60
2017,04,16,04,20,2.60
2017,04,16,04,21,2.60
2017,04,16,04,22,2.70
2017,04,16,04,23,2.70
2017,04,16,04,24,2.70
2017,04,16,04,25,2.70
2017,04,16,04,26,2.70
2017,04,16,04,27,2.70
2017,04,16,04,28,2.70
2017,04,16,04,29,2.70
2017,04,16,04,30,2.70
2017,04,16,04,31,2.70
2017,04,16,04,32,2.70
2017,04,16,04,33,2.70
2017,04,16,04,34,2.70
2017,04,16,04,35,2.70
2017,04,16,04,36,2.70
2017,04,16,04,37,2.70
2017,04,16,04,38,2.80
2017,04,16,04,39,2.80
2017,04,16,04,40,2.80
2017,04,16,04,41,2.80
2017,04,16,04,42,2.80
2017,04,16,04,43,2.80
2017,04,16,04,44,2.90
2017,04,16,04,45,2.90
2017,04,16,04,46,2.90
2017,04,16,04,47,2.90
2017,04,16,04,48,2.90
2017,04,16,04,49,2.90
2017,04,16,04,50,2.90
2017,04,16,04,51,2.90
2017,04,16,04,52,3.00
2017,04,16,04,53,3.00
2017,04,16,04,54,3.00
2017,04,16,04,55,3.00
2017,04,16,04,56,3.00
2017,04,16,04,57,3.00
2017,04,16,04,58,3.00
2017,04,16,04,59,3.10
2017,04,16,05,00,3.10
2017,04,16,05,01,3.10
2017,04,16,05,02,3.10
2017,04,16,05,03,3.10
2017,04,16,05,04,3.10
2017,04,16,05,05,3.10
2017,04,16,05,06,3.10
2017,04,16,05,07,3.10
2017,04,16,05,08,3.10
2017,04,16,05,09,3.10
2017,04,16,05,10,3.10
2017,04,16,05,11,3.10
2017,04,16,05,12,3.10
2017,04,16,05,13,3.10
2017,04,16,05,14,3.10
2017,04,16,05,15,3.10
2017,04,16,05,16,3.10
2017,04,16,05,17,3.10
2017,04,16,05,18,3.10
2017,04,16,05,19,3.10
2017,04,16,05,20,3.10
2017,04,16,05,21,3.10
2017,04,16,05,22,3.20
2017,04,16,05,23,3.20
2017,04,16,05,24,3.20
2017,04,16,05,25,3.20
2017,04,16,05,26,3.20
2017,04,16,05,27,3.20
2017,04,16,05,28,3.20
2017,04,16,05,29,3.20
2017,04,16,05,30,3.20
2017,04,16,05,31,3.20
2017,04,16,05,32,3.20
2017,04,16,05,33,3.20
2017,04,16,05,34,3.20
2017,04,16,05,35,3.20
2017,04,16,05,36,3.20
2017,04,16,05,37,3.20
2017,04,16,05,38,3.20
2017,04,16,05,39,3.20
2017,04,16,05,40,3.20
2017,04,16,05,41,3.20
2017,04,16,05,42,3.20
2017,04,16,05,43,3.20
2017,04,16,05,44,3.20
2017,04,16,05,45,3.20
2017,04,16,05,46,3.10
2017,04,16,05,47,3.10
2017,04,16,05,48,3.10
2017,04,16,05,49,3.10
2017,04,16,05,50,3.10
2017,04,16,05,51,3.10
2017,04,16,05,52,3.10
2017,04,16,05,53,3.10
2017,04,16,05,54,3.10
2017,04,16,05,55,3.10
2017,04,16,05,56,3.10
2017,04,16,05,57,3.10
2017,04,16,05,58,3.10
2017,04,16,05,59,3.10
2017,04,16,06,00,3.10
2017,04,16,06,01,3.10
2017,04,16,06,02,3.10
2017,04,16,06,03,3.10
2017,04,16,06,04,3.10
2017,04,16,06,05,3.10
2017,04,16,06,06,3.20
2017,04,16,06,07,3.20
2017,04,16,06,08,3.20
2017,04,16,06,09,3.20
2017,04,16,06,10,3.20
2017,04,16,06,11,3.20
2017,04,16,06,12,3.20
2017,04,16,06,13,3.20
2017,04,16,06,14,3.20
2017,04,16,06,15,3.20
2017,04,16,06,16,3.20
2017,04,16,06,17,3.20
2017,04,16,06,18,3.20
2017,04,16,06,19,3.20
2017,04,16,06,20,3.10
2017,04,16,06,21,3.10
2017,04,16,06,22,3.10
2017,04,16,06,23,3.10
2017,04,16,06,24,3.10
2017,04,16,06,25,3.00
2017,04,16,06,26,3.00
2017,04,16,06,27,3.00
2017,04,16,06,28,3.00
2017,04,16,06,29,3.00
2017,04,16,06,30,3.00
2017,04,16,06,31,3.00
2017,04,16,06,32,3.00
2017,04,16,06,33,3.00
2017,04,16,06,34,3.00
2017,04,16,06,35,3.00
2017,04,16,06,36,3.00
2017,04,16,06,37,2.90
2017,04,16,06,38,2.90
2017,04,16,06,39,2.90
2017,04,16,06,40,2.90
2017,04,16,06,41,2.90
2017,04,16,06,42,2.90
2017,04,16,06,43,2.90
2017,04,16,06,44,2.80
2017,04,16,06,45,2.80
2017,04,16,06,46,2.80
2017,04,16,06,47,2.80
2017,04,16,06,48,2.80
2017,04,16,06,49,2.80
2017,04,16,06,50,2.80
2017,04,16,06,51,2.80
2017,04,16,06,52,2.80
2017,04,16,06,53,2.80
2017,04,16,06,54,2.80
2017,04,16,06,55,2.80
2017,04,16,06,56,2.80
2017,04,16,06,57,2.90
2017,04,16,06,58,2.90
2017,04,16,06,59,2.90
2017,04,16,07,00,2.90
2017,04,16,07,01,2.90
2017,04,16,07,02,2.90
2017,04,16,07,03,2.90
2017,04,16,07,04,2.90
2017,04,16,07,05,2.90
2017,04,16,07,06,2.90
2017,04,16,07,07,2.90
2017,04,16,07,08,2.90
2017,04,16,07,09,3.00
2017,04,16,07,10,3.00
2017,04,16,07,11,3.00
2017,04,16,07,12,3.00
2017,04,16,07,13,3.00
2017,04,16,07,14,3.10
2017,04,16,07,15,3.10
2017,04,16,07,16,3.10
2017,04,16,07,17,3.10
2017,04,16,07,18,3.10
2017,04,16,07,19,3.10
2017,04,16,07,20,3.10
2017,04,16,07,21,3.10
2017,04,16,07,22,3.10
2017,04,16,07,23,3.10
2017,04,16,07,24,3.10
2017,04,16,07,25,3.20
2017,04,16,07,26,3.20
2017,04,16,07,27,3.20
2017,04,16,07,28,3.20
2017,04,16,07,29,3.20
2017,04,16,07,30,3.20
2017,04,16,07,31,3.20
2017,04,16,07,32,3.20
2017,04,16,07,33,3.20
2017,04,16,07,34,3.20
2017,04,16,07,35,3.20
2017,04,16,07,36,3.30
2017,04,16,07,37,3.30
2017,04,16,07,38,3.30
2017,04,16,07,39,3.30
2017,04,16,07,40,3.30
2017,04,16,07,41,3.30
2017,04,16,07,42,3.40
2017,04,16,07,43,3.40
2017,04,16,07,44,3.40
2017,04,16,07,45,3.50
2017,04,16,07,46,3.50
2017,04,16,07,47,3.60
2017,04,16,07,48,3.70
2017,04,16,07,49,3.70
2017,04,16,07,50,3.80
2017,04,16,07,51,3.80
2017,04,16,07,52,3.90
2017,04,16,07,53,3.90
2017,04,16,07,54,4.00
2017,04,16,07,55,4.00
2017,04,16,07,56,4.10
2017,04,16,07,57,4.10
2017,04,16,07,58,4.20
2017,04,16,07,59,4.20
2017,04,16,08,00,4.30
2017,04,16,08,01,4.30
2017,04,16,08,02,4.30
2017,04,16,08,03,4.40
2017,04,16,08,04,4.40
2017,04,16,08,05,4.50
2017,04,16,08,06,4.50
2017,04,16,08,07,4.60
2017,04,16,08,08,4.70
2017,04,16,08,09,4.70
2017,04,16,08,10,4.80
2017,04,16,08,11,4.80
2017,04,16,08,12,4.80
2017,04,16,08,13,4.90
2017,04,16,08,14,4.90
2017,04,16,08,15,5.00
2017,04,16,08,16,5.00
2017,04,16,08,17,5.10
2017,04,16,08,18,5.10
2017,04,16,08,19,5.20
2017,04,16,08,20,5.20
2017,04,16,08,21,5.20
2017,04,16,08,22,5.30
2017,04,16,08,23,5.30
2017,04,16,08,24,5.30
2017,04,16,08,25,5.40
2017,04,16,08,26,5.40
2017,04,16,08,27,5.50
2017,04,16,08,28,5.50
2017,04,16,08,29,5.60
2017,04,16,08,30,5.60
2017,04,16,08,31,5.70
2017,04,16,08,32,5.70
2017,04,16,08,33,5.70
2017,04,16,08,34,5.80
2017,04,16,08,35,5.80
2017,04,16,08,36,5.80
2017,04,16,08,37,5.90
2017,04,16,08,38,5.90
2017,04,16,08,39,6.00
2017,04,16,08,40,6.00
2017,04,16,08,41,6.10
2017,04,16,08,42,6.10
2017,04,16,08,43,6.20
2017,04,16,08,44,6.20
2017,04,16,08,45,6.30
2017,04,16,08,46,6.30
2017,04,16,08,47,6.40
2017,04,16,08,48,6.50
2017,04,16,08,49,6.60
2017,04,16,08,50,6.60
2017,04,16,08,51,6.70
2017,04,16,08,52,6.80
2017,04,16,08,53,6.80
2017,04,16,08,54,6.80
2017,04,16,08,55,6.90
2017,04,16,08,56,6.90
2017,04,16,08,57,7.00
2017,04,16,08,58,7.00
2017,04,16,08,59,7.10
2017,04,16,09,00,7.20
2017,04,16,09,01,7.20
2017,04,16,09,02,7.30
2017,04,16,09,03,7.40
2017,04,16,09,04,7.40
2017,04,16,09,05,7.50
2017,04,16,09,06,7.50
2017,04,16,09,07,7.60
2017,04,16,09,08,7.60
2017,04,16,09,09,7.60
2017,04,16,09,10,7.60
2017,04,16,09,11,7.70
2017,04,16,09,12,7.70
2017,04,16,09,13,7.80
2017,04,16,09,14,7.80
2017,04,16,09,15,7.90
2017,04,16,09,16,8.00
2017,04,16,09,17,8.10
2017,04,16,09,18,8.10
2017,04,16,09,19,8.20
2017,04,16,09,20,8.20
2017,04,16,09,21,8.30
2017,04,16,09,22,8.40
2017,04,16,09,23,8.40
2017,04,16,09,24,8.50
2017,04,16,09,25,8.60
2017,04,16,09,26,8.60
2017,04,16,09,27,8.70
2017,04,16,09,28,8.70
2017,04,16,09,29,8.70
2017,04,16,09,30,8.70
2017,04,16,09,31,8.80
2017,04,16,09,32,8.80
2017,04,16,09,33,8.90
2017,04,16,09,34,8.90
2017,04,16,09,35,9.00
2017,04,16,09,36,9.10
2017,04,16,09,37,9.20
2017,04,16,09,38,9.20
2017,04,16,09,39,9.20
2017,04,16,09,40,9.20
2017,04,16,09,41,9.20
2017,04,16,09,42,9.20
2017,04,16,09,43,9.20
2017,04,16,09,44,9.20
2017,04,16,09,45,9.10
2017,04,16,09,46,9.10
2017,04,16,09,47,9.20
2017,04,16,09,48,9.20
2017,04,16,09,49,9.30
2017,04,16,09,50,9.40
2017,04,16,09,51,9.50
2017,04,16,09,52,9.60
2017,04,16,09,53,9.70
2017,04,16,09,54,9.80
2017,04,16,09,55,9.90
2017,04,16,09,56,10.00
2017,04,16,09,57,10.00
2017,04,16,09,58,10.00
2017,04,16,09,59,9.90
2017,04,16,10,00,10.00
2017,04,16,10,01,9.90
2017,04,16,10,02,9.90
2017,04,16,10,03,9.90
2017,04,16,10,04,9.90
2017,04,16,10,05,9.90
2017,04,16,10,06,9.80
2017,04,16,10,07,9.80
2017,04,16,10,08,9.80
2017,04,16,10,09,9.80
2017,04,16,10,10,9.80
2017,04,16,10,11,9.80
2017,04,16,10,12,9.80
2017,04,16,10,13,9.80
2017,04,16,10,14,9.80
2017,04,16,10,15,9.90
2017,04,16,10,16,9.90
2017,04,16,10,17,9.90
2017,04,16,10,18,9.90
2017,04,16,10,19,9.80
2017,04,16,10,20,9.90
2017,04,16,10,21,9.90
2017,04,16,10,22,10.00
2017,04,16,10,23,10.10
2017,04,16,10,24,10.20
2017,04,16,10,25,10.20
2017,04,16,10,26,10.20
2017,04,16,10,27,10.30
2017,04,16,10,28,10.40
2017,04,16,10,29,10.50
2017,04,16,10,30,10.60
2017,04,16,10,31,10.70
2017,04,16,10,32,10.80
2017,04,16,10,33,10.80
2017,04,16,10,34,10.80
2017,04,16,10,35,10.80
2017,04,16,10,36,10.80
2017,04,16,10,37,10.80
2017,04,16,10,38,10.80
2017,04,16,10,39,10.70
2017,04,16,10,40,10.70
2017,04,16,10,41,10.70
2017,04,16,10,42,10.60
2017,04,16,10,43,10.60
2017,04,16,10,44,10.60
2017,04,16,10,45,10.60
2017,04,16,10,46,10.60
2017,04,16,10,47,10.60
2017,04,16,10,48,10.60
2017,04,16,10,49,10.70
2017,04,16,10,50,10.70
2017,04,16,10,51,10.70
2017,04,16,10,52,10.70
2017,04,16,10,53,10.70
2017,04,16,10,54,10.80
2017,04,16,10,55,10.80
2017,04,16,10,56,10.80
2017,04,16,10,57,10.80
2017,04,16,10,58,10.90
2017,04,16,10,59,11.00
2017,04,16,11,00,11.20
2017,04,16,11,01,11.30
2017,04,16,11,02,11.40
2017,04,16,11,03,11.50
2017,04,16,11,04,11.50
2017,04,16,11,05,11.60
2017,04,16,11,06,11.50
2017,04,16,11,07,11.50
2017,04,16,11,08,11.50
2017,04,16,11,09,11.40
2017,04,16,11,10,11.40
2017,04,16,11,11,11.40
2017,04,16,11,12,11.40
2017,04,16,11,13,11.40
2017,04,16,11,14,11.40
2017,04,16,11,15,11.40
2017,04,16,11,16,11.30
2017,04,16,11,17,11.40
2017,04,16,11,18,11.40
2017,04,16,11,19,11.40
2017,04,16,11,20,11.40
2017,04,16,11,21,11.30
2017,04,16,11,22,11.40
2017,04,16,11,23,11.40
2017,04,16,11,24,11.30
2017,04,16,11,25,11.30
2017,04,16,11,26,11.30
2017,04,16,11,27,11.30
2017,04,16,11,28,11.30
2017,04,16,11,29,11.30
2017,04,16,11,30,11.30
2017,04,16,11,31,11.30
2017,04,16,11,32,11.40
2017,04,16,11,33,11.40
2017,04,16,11,34,11.40
2017,04,16,11,35,11.40
2017,04,16,11,36,11.40
2017,04,16,11,37,11.40
2017,04,16,11,38,11.40
2017,04,16,11,39,11.50
2017,04,16,11,40,11.50
2017,04,16,11,41,11.50
2017,04,16,11,42,11.60
2017,04,16,11,43,11.60
2017,04,16,11,44,11.60
2017,04,16,11,45,11.50
2017,04,16,11,46,11.40
2017,04,16,11,47,11.40
2017,04,16,11,48,11.40
2017,04,16,11,49,11.40
2017,04,16,11,50,11.50
2017,04,16,11,51,11.60
2017,04,16,11,52,11.60
2017,04,16,11,53,11.60
2017,04,16,11,54,11.60
2017,04,16,11,55,11.70
2017,04,16,11,56,11.70
2017,04,16,11,57,11.70
2017,04,16,11,58,11.80
2017,04,16,11,59,11.70
2017,04,16,12,00,11.70
2017,04,16,12,01,11.70
2017,04,16,12,02,11.70
2017,04,16,12,03,11.60
2017,04,16,12,04,11.60
2017,04,16,12,05,11.60
2017,04,16,12,06,11.60
2017,04,16,12,07,11.60
2017,04,16,12,08,11.60
2017,04,16,12,09,11.60
2017,04,16,12,10,11.60
2017,04,16,12,11,11.60
2017,04,16,12,12,11.60
2017,04,16,12,13,11.70
2017,04,16,12,14,11.70
2017,04,16,12,15,11.70
2017,04,16,12,16,11.70
2017,04,16,12,17,11.70
2017,04,16,12,18,11.70
2017,04,16,12,19,11.70
2017,04,16,12,20,11.70
2017,04,16,12,21,11.70
2017,04,16,12,22,11.70
2017,04,16,12,23,11.70
2017,04,16,12,24,11.70
2017,04,16,12,25,11.80
2017,04,16,12,26,11.80
2017,04,16,12,27,11.90
2017,04,16,12,28,12.00
2017,04,16,12,29,12.00
2017,04,16,12,30,12.00
2017,04,16,12,31,11.90
2017,04,16,12,32,11.90
2017,04,16,12,33,11.90
2017,04,16,12,34,11.90
2017,04,16,12,35,11.90
2017,04,16,12,36,11.90
2017,04,16,12,37,11.90
2017,04,16,12,38,12.00
2017,04,16,12,39,12.00
2017,04,16,12,40,12.10
2017,04,16,12,41,12.10
2017,04,16,12,42,12.10
2017,04,16,12,43,12.10
2017,04,16,12,44,12.10
2017,04,16,12,45,12.00
2017,04,16,12,46,11.90
2017,04,16,12,47,11.90
2017,04,16,12,48,11.80
2017,04,16,12,49,11.80
2017,04,16,12,50,11.80
2017,04,16,12,51,11.90
2017,04,16,12,52,11.90
2017,04,16,12,53,11.90
2017,04,16,12,54,11.90
2017,04,16,12,55,12.00
2017,04,16,12,56,12.20
2017,04,16,12,57,12.20
2017,04,16,12,58,12.20
2017,04,16,12,59,12.20
2017,04,16,13,00,12.20
2017,04,16,13,01,12.30
2017,04,16,13,02,12.40
2017,04,16,13,03,12.40
2017,04,16,13,04,12.50
2017,04,16,13,05,12.70
2017,04,16,13,06,12.80
2017,04,16,13,07,13.10
2017,04,16,13,08,13.20
2017,04,16,13,09,13.40
2017,04,16,13,10,13.40
2017,04,16,13,11,13.30
2017,04,16,13,12,13.20
2017,04,16,13,13,13.20
2017,04,16,13,14,13.20
2017,04,16,13,15,13.20
2017,04,16,13,16,13.20
2017,04,16,13,17,13.20
2017,04,16,13,18,13.20
2017,04,16,13,19,13.20
2017,04,16,13,20,13.20
2017,04,16,13,21,13.20
2017,04,16,13,22,13.20
2017,04,16,13,23,13.20
2017,04,16,13,24,13.20
2017,04,16,13,25,13.20
2017,04,16,13,26,13.20
2017,04,16,13,27,13.20
2017,04,16,13,28,13.20
2017,04,16,13,29,13.20
2017,04,16,13,30,13.20
2017,04,16,13,31,13.30
2017,04,16,13,32,13.20
2017,04,16,13,33,13.20
2017,04,16,13,34,13.10
2017,04,16,13,35,13.10
2017,04,16,13,36,13.20
2017,04,16,13,37,13.30
2017,04,16,13,38,13.40
2017,04,16,13,39,13.60
2017,04,16,13,40,13.80
2017,04,16,13,41,13.80
2017,04,16,13,42,13.70
2017,04,16,13,43,13.70
2017,04,16,13,44,13.70
2017,04,16,13,45,13.80
2017,04,16,13,46,13.80
2017,04,16,13,47,13.80
2017,04,16,13,48,13.80
2017,04,16,13,49,13.90
2017,04,16,13,50,13.90
2017,04,16,13,51,13.80
2017,04,16,13,52,13.90
2017,04,16,13,53,14.00
2017,04,16,13,54,14.10
2017,04,16,13,55,14.20
2017,04,16,13,56,14.20
2017,04,16,13,57,14.30
2017,04,16,13,58,14.20
2017,04,16,13,59,14.20
2017,04,16,14,00,14.20
2017,04,16,14,01,14.30
2017,04,16,14,02,14.40
2017,04,16,14,03,14.40
2017,04,16,14,04,14.30
2017,04,16,14,05,14.30
2017,04,16,14,06,14.30
2017,04,16,14,07,14.30
2017,04,16,14,08,14.20
2017,04,16,14,09,14.30
2017,04,16,14,10,14.30
2017,04,16,14,11,14.30
2017,04,16,14,12,14.40
2017,04,16,14,13,14.50
2017,04,16,14,14,14.60
2017,04,16,14,15,14.70
2017,04,16,14,16,14.70
2017,04,16,14,17,14.70
2017,04,16,14,18,14.80
2017,04,16,14,19,14.80
2017,04,16,14,20,14.80
2017,04,16,14,21,14.80
2017,04,16,14,22,14.70
2017,04,16,14,23,14.70
2017,04,16,14,24,14.70
2017,04,16,14,25,14.60
2017,04,16,14,26,14.60
2017,04,16,14,27,14.60
2017,04,16,14,28,14.70
2017,04,16,14,29,14.70
2017,04,16,14,30,14.80
2017,04,16,14,31,14.90
2017,04,16,14,32,15.00
2017,04,16,14,33,15.00
2017,04,16,14,34,15.00
2017,04,16,14,35,15.00
2017,04,16,14,36,15.00
2017,04,16,14,37,15.00
2017,04,16,14,38,14.90
2017,04,16,14,39,14.90
2017,04,16,14,40,14.80
2017,04,16,14,41,14.80
2017,04,16,14,42,14.80
2017,04,16,14,43,14.90
2017,04,16,14,44,15.00
2017,04,16,14,45,15.10
2017,04,16,14,46,15.20
2017,04,16,14,47,15.20
2017,04,16,14,48,15.20
2017,04,16,14,49,15.20
2017,04,16,14,50,15.20
2017,04,16,14,51,15.20
2017,04,16,14,52,15.10
2017,04,16,14,53,15.10
2017,04,16,14,54,15.10
2017,04,16,14,55,14.90
2017,04,16,14,56,14.80
2017,04,16,14,57,14.80
2017,04,16,14,58,14.80
2017,04,16,14,59,14.80
2017,04,16,15,00,14.90
2017,04,16,15,01,15.00
2017,04,16,15,02,15.10
2017,04,16,15,03,15.10
2017,04,16,15,04,15.20
2017,04,16,15,05,15.20
2017,04,16,15,06,15.20
2017,04,16,15,07,15.20
2017,04,16,15,08,15.30
2017,04,16,15,09,15.30
2017,04,16,15,10,15.30
2017,04,16,15,11,15.20
2017,04,16,15,12,15.20
2017,04,16,15,13,15.20
2017,04,16,15,14,15.30
2017,04,16,15,15,15.30
2017,04,16,15,16,15.30
2017,04,16,15,17,15.30
2017,04,16,15,18,15.30
2017,04,16,15,19,15.20
2017,04,16,15,20,15.20
2017,04,16,15,21,15.20
2017,04,16,15,22,15.20
2017,04,16,15,23,15.10
2017,04,16,15,24,15.10
2017,04,16,15,25,15.10
2017,04,16,15,26,15.10
2017,04,16,15,27,15.20
2017,04,16,15,28,15.30
2017,04,16,15,29,15.30
2017,04,16,15,30,15.40
2017,04,16,15,31,15.50
2017,04,16,15,32,15.60
2017,04,16,15,33,15.70
2017,04,16,15,34,15.80
2017,04,16,15,35,15.90
2017,04,16,15,36,16.00
2017,04,16,15,37,16.00
2017,04,16,15,38,16.10
2017,04,16,15,39,16.10
2017,04,16,15,40,16.00
2017,04,16,15,41,15.90
2017,04,16,15,42,15.80
2017,04,16,15,43,15.80
2017,04,16,15,44,15.80
2017,04,16,15,45,15.70
2017,04,16,15,46,15.80
2017,04,16,15,47,15.90
2017,04,16,15,48,15.90
2017,04,16,15,49,15.90
2017,04,16,15,50,16.00
2017,04,16,15,51,16.00
2017,04,16,15,52,16.00
2017,04,16,15,53,15.90
2017,04,16,15,54,15.90
2017,04,16,15,55,15.90
2017,04,16,15,56,15.90
2017,04,16,15,57,15.90
2017,04,16,15,58,16.00
2017,04,16,15,59,16.00
2017,04,16,16,00,16.00
2017,04,16,16,01,16.10
2017,04,16,16,02,16.20
2017,04,16,16,03,16.30
2017,04,16,16,04,16.40
2017,04,16,16,05,16.60
2017,04,16,16,06,16.60
2017,04,16,16,07,16.70
2017,04,16,16,08,16.70
2017,04,16,16,09,16.70
2017,04,16,16,10,16.60
2017,04,16,16,11,16.50
2017,04,16,16,12,16.40
2017,04,16,16,13,16.40
2017,04,16,16,14,16.40
2017,04,16,16,15,16.40
2017,04,16,16,16,16.30
2017,04,16,16,17,16.20
2017,04,16,16,18,16.20
2017,04,16,16,19,16.30
2017,04,16,16,20,16.30
2017,04,16,16,21,16.30
2017,04,16,16,22,16.30
2017,04,16,16,23,16.30
2017,04,16,16,24,16.40
2017,04,16,16,25,16.40
2017,04,16,16,26,16.40
2017,04,16,16,27,16.50
2017,04,16,16,28,16.50
2017,04,16,16,29,16.50
2017,04,16,16,30,16.60
2017,04,16,16,31,16.50
2017,04,16,16,32,16.40
2017,04,16,16,33,16.30
2017,04,16,16,34,16.30
2017,04,16,16,35,16.40
2017,04,16,16,36,16.40
2017,04,16,16,37,16.40
2017,04,16,16,38,16.40
2017,04,16,16,39,16.50
2017,04,16,16,40,16.50
2017,04,16,16,41,16.60
2017,04,16,16,42,16.60
2017,04,16,16,43,16.60
2017,04,16,16,44,16.60
2017,04,16,16,45,16.60
2017,04,16,16,46,16.60
2017,04,16,16,47,16.60
2017,04,16,16,48,16.60
2017,04,16,16,49,16.70
2017,04,16,16,50,16.70
2017,04,16,16,51,16.80
2017,04,16,16,52,16.80
2017,04,16,16,53,16.80
2017,04,16,16,54,16.80
2017,04,16,16,55,16.80
2017,04,16,16,56,16.70
2017,04,16,16,57,16.70
2017,04,16,16,58,16.70
2017,04,16,16,59,16.60
2017,04,16,17,00,16.60
2017,04,16,17,01,16.60
2017,04,16,17,02,16.60
2017,04,16,17,03,16.60
2017,04,16,17,04,16.50
2017,04,16,17,05,16.40
2017,04,16,17,06,16.40
2017,04,16,17,07,16.40
2017,04,16,17,08,16.40
2017,04,16,17,09,16.40
2017,04,16,17,10,16.40
2017,04,16,17,11,16.40
2017,04,16,17,12,16.50
2017,04,16,17,13,16.60
2017,04,16,17,14,16.50
2017,04,16,17,15,16.40
2017,04,16,17,16,16.40
2017,04,16,17,17,16.40
2017,04,16,17,18,16.30
2017,04,16,17,19,16.30
2017,04,16,17,20,16.30
2017,04,16,17,21,16.30
2017,04,16,17,22,16.30
2017,04,16,17,23,16.30
2017,04,16,17,24,16.30
2017,04,16,17,25,16.40
2017,04,16,17,26,16.40
2017,04,16,17,27,16.50
2017,04,16,17,28,16.50
2017,04,16,17,29,16.50
2017,04,16,17,30,16.50
2017,04,16,17,31,16.50
2017,04,16,17,32,16.40
2017,04,16,17,33,16.40
2017,04,16,17,34,16.40
2017,04,16,17,35,16.40
2017,04,16,17,36,16.30
2017,04,16,17,37,16.30
2017,04,16,17,38,16.30
2017,04,16,17,39,16.40
2017,04,16,17,40,16.40
2017,04,16,17,41,16.30
2017,04,16,17,42,16.30
2017,04,16,17,43,16.20
2017,04,16,17,44,16.20
2017,04,16,17,45,16.20
2017,04,16,17,46,16.10